M I D A S
Marine Information and Data Acquisition System
Tripno 1555 of the Zeeleeuw from 2008-08-05 05:30:06 to 2008-08-05 16:48:53
Back to CruiseResearch ActivitiesStationsMapUnderway DataData graphs

EquipmentUnitsComments
TimeDGPSUTC
LatitudeDGPSDM.mWGS84
LongitudeDGPSDM.mWGS84
SpeedMeteo Stationm/sRelative wind speed
DirectionMeteo StationdegRelative wind direction
TemperatureMeteo Stationdeg CelciusAir temperature
PressureMeteo StationPaAtmospheric pressure
HumidityMeteo Station%Relative humidity
Missing or incorrect values are displayed as -999
Metereological data collected by the RV Zeeleeuw from 2008-08-05 05:30:06 to 2008-08-05 16:53:47
Time Latitude Longitude Speed Direction Temperature Pressure Humidity
2008-08-05 05:31 51°13.639 2°55.992 -999 -999 -999 -999 -999
2008-08-05 05:32 51°13.669 2°55.893 -999 -999 -999 -999 -999
2008-08-05 05:33 51°13.697 2°55.801 -999 -999 -999 -999 -999
2008-08-05 05:34 51°13.705 2°55.734 -999 -999 -999 -999 -999
2008-08-05 05:35 51°13.713 2°55.722 -999 -999 -999 -999 -999
2008-08-05 05:36 51°13.777 2°55.689 -999 -999 -999 -999 -999
2008-08-05 05:37 51°13.893 2°55.587 -999 -999 -999 -999 -999
2008-08-05 05:38 51°14.028 2°55.476 -999 -999 -999 -999 -999
2008-08-05 05:39 51°14.17 2°55.369 -999 -999 -999 -999 -999
2008-08-05 05:40 51°14.282 2°55.254 -999 -999 -999 -999 -999
2008-08-05 05:41 51°14.354 2°55.129 -999 -999 -999 -999 -999
2008-08-05 05:42 51°14.47 2°54.913 -999 -999 -999 -999 -999
2008-08-05 05:43 51°14.657 2°54.762 -999 -999 -999 -999 -999
2008-08-05 05:44 51°14.849 2°54.638 -999 -999 -999 -999 -999
2008-08-05 05:45 51°15.036 2°54.502 -999 -999 -999 -999 -999
2008-08-05 05:46 51°15.217 2°54.342 -999 -999 -999 -999 -999
2008-08-05 05:47 51°15.396 2°54.179 -999 -999 -999 -999 -999
2008-08-05 05:48 51°15.576 2°54.015 -999 -999 -999 -999 -999
2008-08-05 05:49 51°15.754 2°53.848 -999 -999 -999 -999 -999
2008-08-05 05:50 51°15.931 2°53.678 -999 -999 -999 -999 -999
2008-08-05 05:51 51°16.113 2°53.517 -999 -999 -999 -999 -999
2008-08-05 05:52 51°16.295 2°53.355 -999 -999 -999 -999 -999
2008-08-05 05:53 51°16.473 2°53.184 -999 -999 -999 -999 -999
2008-08-05 05:54 51°16.652 2°53.015 -999 -999 -999 -999 -999
2008-08-05 05:55 51°16.833 2°52.854 -999 -999 -999 -999 -999
2008-08-05 05:56 51°17.023 2°52.717 -999 -999 -999 -999 -999
2008-08-05 05:57 51°17.23 2°52.661 -999 -999 -999 -999 -999
2008-08-05 05:58 51°17.442 2°52.65 -999 -999 -999 -999 -999
2008-08-05 05:59 51°17.653 2°52.641 -999 -999 -999 -999 -999
2008-08-05 06:00 51°17.859 2°52.707 -999 -999 -999 -999 -999
2008-08-05 06:01 51°18.066 2°52.771 -999 -999 -999 -999 -999
2008-08-05 06:02 51°18.274 2°52.824 -999 -999 -999 -999 -999
2008-08-05 06:03 51°18.483 2°52.87 -999 -999 -999 -999 -999
2008-08-05 06:04 51°18.669 2°53.011 -999 -999 -999 -999 -999
2008-08-05 06:05 51°18.803 2°53.261 -999 -999 -999 -999 -999
2008-08-05 06:06 51°18.927 2°53.523 -999 -999 -999 -999 -999
2008-08-05 06:07 51°19.053 2°53.784 -999 -999 -999 -999 -999
2008-08-05 06:08 51°19.18 2°54.045 -999 -999 -999 -999 -999
2008-08-05 06:09 51°19.31 2°54.301 -999 -999 -999 -999 -999
2008-08-05 06:10 51°19.441 2°54.555 -999 -999 -999 -999 -999
2008-08-05 06:11 51°19.573 2°54.808 -999 -999 -999 -999 -999
2008-08-05 06:12 51°19.704 2°55.063 -999 -999 -999 -999 -999
2008-08-05 06:13 51°19.833 2°55.317 -999 -999 -999 -999 -999
2008-08-05 06:14 51°19.961 2°55.577 -999 -999 -999 -999 -999
2008-08-05 06:15 51°20.086 2°55.836 -999 -999 -999 -999 -999
2008-08-05 06:16 51°20.211 2°56.092 -999 -999 -999 -999 -999
2008-08-05 06:17 51°20.344 2°56.337 -999 -999 -999 -999 -999
2008-08-05 06:18 51°20.471 2°56.592 -999 -999 -999 -999 -999
2008-08-05 06:19 51°20.588 2°56.859 -999 -999 -999 -999 -999
2008-08-05 06:20 51°20.713 2°57.115 -999 -999 -999 -999 -999
2008-08-05 06:21 51°20.839 2°57.37 -999 -999 -999 -999 -999
2008-08-05 06:22 51°20.967 2°57.621 -999 -999 -999 -999 -999
2008-08-05 06:23 51°21.093 2°57.878 -999 -999 -999 -999 -999
2008-08-05 06:24 51°21.221 2°58.128 -999 -999 -999 -999 -999
2008-08-05 06:25 51°21.347 2°58.383 -999 -999 -999 -999 -999
2008-08-05 06:26 51°21.471 2°58.639 -999 -999 -999 -999 -999
2008-08-05 06:27 51°21.597 2°58.892 -999 -999 -999 -999 -999
2008-08-05 06:28 51°21.724 2°59.144 -999 -999 -999 -999 -999
2008-08-05 06:29 51°21.854 2°59.391 -999 -999 -999 -999 -999
2008-08-05 06:30 51°21.98 2°59.647 -999 -999 -999 -999 -999
2008-08-05 06:31 51°22.11 2°59.896 -999 -999 -999 -999 -999
2008-08-05 06:32 51°22.236 3°0.145 -999 -999 -999 -999 -999
2008-08-05 06:33 51°22.364 3°0.394 -999 -999 -999 -999 -999
2008-08-05 06:34 51°22.455 3°0.676 -999 -999 -999 -999 -999
2008-08-05 06:35 51°22.546 3°0.955 -999 -999 -999 -999 -999
2008-08-05 06:36 51°22.654 3°1.221 -999 -999 -999 -999 -999
2008-08-05 06:37 51°22.754 3°1.461 -999 -999 -999 -999 -999
2008-08-05 06:38 51°22.817 3°1.598 -999 -999 -999 -999 -999
2008-08-05 06:39 51°22.871 3°1.634 -999 -999 -999 -999 -999
2008-08-05 06:40 51°22.913 3°1.64 -999 -999 -999 -999 -999
2008-08-05 06:41 51°22.947 3°1.638 -999 -999 -999 -999 -999
2008-08-05 06:42 51°22.97 3°1.635 -999 -999 -999 -999 -999
2008-08-05 06:43 51°22.986 3°1.631 -999 -999 -999 -999 -999
2008-08-05 06:44 51°22.998 3°1.625 -999 -999 -999 -999 -999
2008-08-05 06:45 51°23.009 3°1.619 -999 -999 -999 -999 -999
2008-08-05 06:46 51°23.018 3°1.615 -999 -999 -999 -999 -999
2008-08-05 06:47 51°23.025 3°1.61 -999 -999 -999 -999 -999
2008-08-05 06:48 51°23.033 3°1.607 -999 -999 -999 -999 -999
2008-08-05 06:49 51°23.042 3°1.602 -999 -999 -999 -999 -999
2008-08-05 06:50 51°23.05 3°1.597 -999 -999 -999 -999 -999
2008-08-05 06:51 51°23.062 3°1.592 -999 -999 -999 -999 -999
2008-08-05 06:52 51°23.106 3°1.619 -999 -999 -999 -999 -999
2008-08-05 06:53 51°23.089 3°1.687 -999 -999 -999 -999 -999
2008-08-05 06:54 51°23.06 3°1.711 -999 -999 -999 -999 -999
2008-08-05 06:55 51°23.037 3°1.729 -999 -999 -999 -999 -999
2008-08-05 06:56 51°23.027 3°1.732 -999 -999 -999 -999 -999
2008-08-05 06:57 51°23.021 3°1.726 -999 -999 -999 -999 -999
2008-08-05 06:58 51°23.016 3°1.715 -999 -999 -999 -999 -999
2008-08-05 06:59 51°23.013 3°1.703 -999 -999 -999 -999 -999
2008-08-05 07:00 51°22.987 3°1.731 -999 -999 -999 -999 -999
2008-08-05 07:01 51°23.024 3°1.84 -999 -999 -999 -999 -999
2008-08-05 07:02 51°23.078 3°1.926 -999 -999 -999 -999 -999
2008-08-05 07:03 51°23.113 3°1.981 -999 -999 -999 -999 -999
2008-08-05 07:04 51°23.124 3°1.997 -999 -999 -999 -999 -999
2008-08-05 07:05 51°23.126 3°1.997 -999 -999 -999 -999 -999
2008-08-05 07:06 51°23.126 3°1.99 -999 -999 -999 -999 -999
2008-08-05 07:07 51°23.126 3°1.979 -999 -999 -999 -999 -999
2008-08-05 07:08 51°23.114 3°1.993 -999 -999 -999 -999 -999
2008-08-05 07:09 51°23.146 3°2.091 -999 -999 -999 -999 -999
2008-08-05 07:10 51°23.183 3°2.138 -999 -999 -999 -999 -999
2008-08-05 07:11 51°23.192 3°2.146 -999 -999 -999 -999 -999
2008-08-05 07:12 51°23.195 3°2.149 -999 -999 -999 -999 -999
2008-08-05 07:13 51°23.193 3°2.155 -999 -999 -999 -999 -999
2008-08-05 07:14 51°23.197 3°2.207 -999 -999 -999 -999 -999
2008-08-05 07:15 51°23.214 3°2.265 -999 -999 -999 -999 -999
2008-08-05 07:16 51°23.223 3°2.279 -999 -999 -999 -999 -999
2008-08-05 07:17 51°23.226 3°2.289 -999 -999 -999 -999 -999
2008-08-05 07:18 51°23.226 3°2.29 -999 -999 -999 -999 -999
2008-08-05 07:19 51°23.222 3°2.293 -999 -999 -999 -999 -999
2008-08-05 07:20 51°23.224 3°2.323 -999 -999 -999 -999 -999
2008-08-05 07:21 51°23.242 3°2.36 -999 -999 -999 -999 -999
2008-08-05 07:22 51°23.261 3°2.37 -999 -999 -999 -999 -999
2008-08-05 07:23 51°23.28 3°2.371 -999 -999 -999 -999 -999
2008-08-05 07:24 51°23.298 3°2.368 -999 -999 -999 -999 -999
2008-08-05 07:25 51°23.316 3°2.362 -999 -999 -999 -999 -999
2008-08-05 07:26 51°23.335 3°2.355 -999 -999 -999 -999 -999
2008-08-05 07:27 51°23.352 3°2.374 -999 -999 -999 -999 -999
2008-08-05 07:28 51°23.34 3°2.418 -999 -999 -999 -999 -999
2008-08-05 07:29 51°23.337 3°2.49 -999 -999 -999 -999 -999
2008-08-05 07:30 51°23.329 3°2.57 -999 -999 -999 -999 -999
2008-08-05 07:31 51°23.32 3°2.595 -999 -999 -999 -999 -999
2008-08-05 07:32 51°23.312 3°2.595 -999 -999 -999 -999 -999
2008-08-05 07:33 51°23.305 3°2.583 -999 -999 -999 -999 -999
2008-08-05 07:34 51°23.298 3°2.57 -999 -999 -999 -999 -999
2008-08-05 07:35 51°23.291 3°2.603 -999 -999 -999 -999 -999
2008-08-05 07:36 51°23.319 3°2.672 -999 -999 -999 -999 -999
2008-08-05 07:37 51°23.349 3°2.733 -999 -999 -999 -999 -999
2008-08-05 07:38 51°23.383 3°2.776 -999 -999 -999 -999 -999
2008-08-05 07:39 51°23.404 3°2.794 -999 -999 -999 -999 -999
2008-08-05 07:40 51°23.42 3°2.807 -999 -999 -999 -999 -999
2008-08-05 07:41 51°23.43 3°2.822 -999 -999 -999 -999 -999
2008-08-05 07:42 51°23.429 3°2.823 -999 -999 -999 -999 -999
2008-08-05 07:43 51°23.422 3°2.815 -999 -999 -999 -999 -999
2008-08-05 07:44 51°23.416 3°2.836 -999 -999 -999 -999 -999
2008-08-05 07:45 51°23.426 3°2.865 -999 -999 -999 -999 -999
2008-08-05 07:46 51°23.43 3°2.873 -999 -999 -999 -999 -999
2008-08-05 07:47 51°23.431 3°2.876 -999 -999 -999 -999 -999
2008-08-05 07:48 51°23.427 3°2.881 -999 -999 -999 -999 -999
2008-08-05 07:49 51°23.43 3°2.93 -999 -999 -999 -999 -999
2008-08-05 07:50 51°23.469 3°3.019 -999 -999 -999 -999 -999
2008-08-05 07:51 51°23.512 3°3.098 -999 -999 -999 -999 -999
2008-08-05 07:52 51°23.542 3°3.157 -999 -999 -999 -999 -999
2008-08-05 07:53 51°23.553 3°3.177 -999 -999 -999 -999 -999
2008-08-05 07:54 51°23.557 3°3.185 -999 -999 -999 -999 -999
2008-08-05 07:55 51°23.559 3°3.186 -999 -999 -999 -999 -999
2008-08-05 07:56 51°23.567 3°3.21 -999 -999 -999 -999 -999
2008-08-05 07:57 51°23.591 3°3.209 -999 -999 -999 -999 -999
2008-08-05 07:58 51°23.595 3°3.187 -999 -999 -999 -999 -999
2008-08-05 07:59 51°23.601 3°3.166 -999 -999 -999 -999 -999
2008-08-05 08:00 51°23.608 3°3.145 -999 -999 -999 -999 -999
2008-08-05 08:01 51°23.617 3°3.123 -999 -999 -999 -999 -999
2008-08-05 08:02 51°23.625 3°3.102 -999 -999 -999 -999 -999
2008-08-05 08:03 51°23.633 3°3.083 -999 -999 -999 -999 -999
2008-08-05 08:04 51°23.64 3°3.064 -999 -999 -999 -999 -999
2008-08-05 08:05 51°23.647 3°3.046 -999 -999 -999 -999 -999
2008-08-05 08:06 51°23.654 3°3.028 -999 -999 -999 -999 -999
2008-08-05 08:07 51°23.661 3°3.009 -999 -999 -999 -999 -999
2008-08-05 08:08 51°23.67 3°2.991 -999 -999 -999 -999 -999
2008-08-05 08:09 51°23.707 3°2.98 -999 -999 -999 -999 -999
2008-08-05 08:10 51°23.727 3°3.021 -999 -999 -999 -999 -999
2008-08-05 08:11 51°23.694 3°3.039 -999 -999 -999 -999 -999
2008-08-05 08:12 51°23.637 3°3.021 -999 -999 -999 -999 -999
2008-08-05 08:13 51°23.558 3°3.036 -999 -999 -999 -999 -999
2008-08-05 08:14 51°23.479 3°2.958 -999 -999 -999 -999 -999
2008-08-05 08:15 51°23.407 3°2.83 -999 -999 -999 -999 -999
2008-08-05 08:16 51°23.326 3°2.704 -999 -999 -999 -999 -999
2008-08-05 08:17 51°23.26 3°2.604 -999 -999 -999 -999 -999
2008-08-05 08:18 51°23.229 3°2.53 -999 -999 -999 -999 -999
2008-08-05 08:19 51°23.214 3°2.469 -999 -999 -999 -999 -999
2008-08-05 08:20 51°23.207 3°2.424 -999 -999 -999 -999 -999
2008-08-05 08:21 51°23.207 3°2.39 -999 -999 -999 -999 -999
2008-08-05 08:22 51°23.211 3°2.359 -999 -999 -999 -999 -999
2008-08-05 08:23 51°23.221 3°2.335 -999 -999 -999 -999 -999
2008-08-05 08:24 51°23.234 3°2.312 -999 -999 -999 -999 -999
2008-08-05 08:25 51°23.247 3°2.287 -999 -999 -999 -999 -999
2008-08-05 08:26 51°23.258 3°2.261 -999 -999 -999 -999 -999
2008-08-05 08:27 51°23.268 3°2.235 -999 -999 -999 -999 -999
2008-08-05 08:28 51°23.277 3°2.21 -999 -999 -999 -999 -999
2008-08-05 08:29 51°23.284 3°2.187 -999 -999 -999 -999 -999
2008-08-05 08:30 51°23.29 3°2.162 -999 -999 -999 -999 -999
2008-08-05 08:31 51°23.296 3°2.136 -999 -999 -999 -999 -999
2008-08-05 08:32 51°23.3 3°2.112 -999 -999 -999 -999 -999
2008-08-05 08:33 51°23.304 3°2.088 -999 -999 -999 -999 -999
2008-08-05 08:34 51°23.309 3°2.066 -999 -999 -999 -999 -999
2008-08-05 08:35 51°23.313 3°2.044 -999 -999 -999 -999 -999
2008-08-05 08:36 51°23.318 3°2.022 -999 -999 -999 -999 -999
2008-08-05 08:37 51°23.322 3°2 -999 -999 -999 -999 -999
2008-08-05 08:38 51°23.328 3°1.979 -999 -999 -999 -999 -999
2008-08-05 08:39 51°23.332 3°1.959 -999 -999 -999 -999 -999
2008-08-05 08:40 51°23.337 3°1.939 -999 -999 -999 -999 -999
2008-08-05 08:41 51°23.34 3°1.919 -999 -999 -999 -999 -999
2008-08-05 08:42 51°23.343 3°1.899 -999 -999 -999 -999 -999
2008-08-05 08:43 51°23.346 3°1.879 -999 -999 -999 -999 -999
2008-08-05 08:44 51°23.35 3°1.858 -999 -999 -999 -999 -999
2008-08-05 08:45 51°23.353 3°1.836 -999 -999 -999 -999 -999
2008-08-05 08:46 51°23.356 3°1.816 -999 -999 -999 -999 -999
2008-08-05 08:47 51°23.357 3°1.796 -999 -999 -999 -999 -999
2008-08-05 08:48 51°23.347 3°1.836 -999 -999 -999 -999 -999
2008-08-05 08:49 51°23.394 3°1.854 -999 -999 -999 -999 -999
2008-08-05 08:50 51°23.427 3°1.829 -999 -999 -999 -999 -999
2008-08-05 08:51 51°23.45 3°1.795 -999 -999 -999 -999 -999
2008-08-05 08:52 51°23.463 3°1.759 -999 -999 -999 -999 -999
2008-08-05 08:53 51°23.474 3°1.727 -999 -999 -999 -999 -999
2008-08-05 08:54 51°23.488 3°1.693 -999 -999 -999 -999 -999
2008-08-05 08:55 51°23.505 3°1.637 -999 -999 -999 -999 -999
2008-08-05 08:56 51°23.512 3°1.567 -999 -999 -999 -999 -999
2008-08-05 08:57 51°23.505 3°1.499 -999 -999 -999 -999 -999
2008-08-05 08:58 51°23.484 3°1.455 -999 -999 -999 -999 -999
2008-08-05 08:59 51°23.459 3°1.448 -999 -999 -999 -999 -999
2008-08-05 09:00 51°23.429 3°1.45 -999 -999 -999 -999 -999
2008-08-05 09:01 51°23.395 3°1.449 -999 -999 -999 -999 -999
2008-08-05 09:02 51°23.362 3°1.447 -999 -999 -999 -999 -999
2008-08-05 09:03 51°23.327 3°1.448 -999 -999 -999 -999 -999
2008-08-05 09:04 51°23.292 3°1.447 -999 -999 -999 -999 -999
2008-08-05 09:05 51°23.258 3°1.447 -999 -999 -999 -999 -999
2008-08-05 09:06 51°23.224 3°1.442 -999 -999 -999 -999 -999
2008-08-05 09:07 51°23.19 3°1.439 -999 -999 -999 -999 -999
2008-08-05 09:08 51°23.157 3°1.436 -999 -999 -999 -999 -999
2008-08-05 09:09 51°23.129 3°1.427 -999 -999 -999 -999 -999
2008-08-05 09:10 51°23.106 3°1.416 -999 -999 -999 -999 -999
2008-08-05 09:11 51°23.087 3°1.402 -999 -999 -999 -999 -999
2008-08-05 09:12 51°23.068 3°1.387 -999 -999 -999 -999 -999
2008-08-05 09:13 51°23.049 3°1.37 -999 -999 -999 -999 -999
2008-08-05 09:14 51°23.031 3°1.352 -999 -999 -999 -999 -999
2008-08-05 09:15 51°23.013 3°1.335 -999 -999 -999 -999 -999
2008-08-05 09:16 51°22.996 3°1.319 -999 -999 -999 -999 -999
2008-08-05 09:17 51°22.977 3°1.301 -999 -999 -999 -999 -999
2008-08-05 09:18 51°22.958 3°1.283 -999 -999 -999 -999 -999
2008-08-05 09:19 51°22.94 3°1.268 -999 -999 -999 -999 -999
2008-08-05 09:20 51°22.924 3°1.256 -999 -999 -999 -999 -999
2008-08-05 09:21 51°22.909 3°1.246 -999 -999 -999 -999 -999
2008-08-05 09:22 51°22.896 3°1.238 -999 -999 -999 -999 -999
2008-08-05 09:23 51°22.884 3°1.233 -999 -999 -999 -999 -999
2008-08-05 09:24 51°22.872 3°1.237 -999 -999 -999 -999 -999
2008-08-05 09:25 51°22.865 3°1.252 -999 -999 -999 -999 -999
2008-08-05 09:26 51°22.862 3°1.276 -999 -999 -999 -999 -999
2008-08-05 09:27 51°22.863 3°1.307 -999 -999 -999 -999 -999
2008-08-05 09:28 51°22.891 3°1.346 -999 -999 -999 -999 -999
2008-08-05 09:29 51°22.927 3°1.433 -999 -999 -999 -999 -999
2008-08-05 09:30 51°22.968 3°1.527 -999 -999 -999 -999 -999
2008-08-05 09:31 51°22.998 3°1.612 -999 -999 -999 -999 -999
2008-08-05 09:32 51°23.029 3°1.694 -999 -999 -999 -999 -999
2008-08-05 09:33 51°23.06 3°1.785 -999 -999 -999 -999 -999
2008-08-05 09:34 51°23.075 3°1.888 -999 -999 -999 -999 -999
2008-08-05 09:35 51°23.092 3°1.993 -999 -999 -999 -999 -999
2008-08-05 09:36 51°23.118 3°2.091 -999 -999 -999 -999 -999
2008-08-05 09:37 51°23.155 3°2.181 -999 -999 -999 -999 -999
2008-08-05 09:38 51°23.19 3°2.274 -999 -999 -999 -999 -999
2008-08-05 09:39 51°23.227 3°2.367 -999 -999 -999 -999 -999
2008-08-05 09:40 51°23.278 3°2.443 -999 -999 -999 -999 -999
2008-08-05 09:41 51°23.316 3°2.536 -999 -999 -999 -999 -999
2008-08-05 09:42 51°23.351 3°2.636 -999 -999 -999 -999 -999
2008-08-05 09:43 51°23.383 3°2.738 -999 -999 -999 -999 -999
2008-08-05 09:44 51°23.414 3°2.837 -999 -999 -999 -999 -999
2008-08-05 09:45 51°23.441 3°2.934 -999 -999 -999 -999 -999
2008-08-05 09:46 51°23.477 3°3.024 -999 -999 -999 -999 -999
2008-08-05 09:47 51°23.513 3°3.117 -999 -999 -999 -999 -999
2008-08-05 09:48 51°23.551 3°3.209 -999 -999 -999 -999 -999
2008-08-05 09:49 51°23.59 3°3.299 -999 -999 -999 -999 -999
2008-08-05 09:50 51°23.627 3°3.387 -999 -999 -999 -999 -999
2008-08-05 09:51 51°23.679 3°3.418 -999 -999 -999 -999 -999
2008-08-05 09:52 51°23.714 3°3.309 -999 -999 -999 -999 -999
2008-08-05 09:53 51°23.669 3°3.195 -999 -999 -999 -999 -999
2008-08-05 09:54 51°23.589 3°3.12 -999 -999 -999 -999 -999
2008-08-05 09:55 51°23.528 3°3.041 -999 -999 -999 -999 -999
2008-08-05 09:56 51°23.485 3°2.964 -999 -999 -999 -999 -999
2008-08-05 09:57 51°23.453 3°2.879 -999 -999 -999 -999 -999
2008-08-05 09:58 51°23.431 3°2.782 -999 -999 -999 -999 -999
2008-08-05 09:59 51°23.409 3°2.684 -999 -999 -999 -999 -999
2008-08-05 10:00 51°23.392 3°2.586 -999 -999 -999 -999 -999
2008-08-05 10:01 51°23.377 3°2.482 -999 -999 -999 -999 -999
2008-08-05 10:02 51°23.356 3°2.377 -999 -999 -999 -999 -999
2008-08-05 10:03 51°23.321 3°2.28 -999 -999 -999 -999 -999
2008-08-05 10:04 51°23.273 3°2.197 -999 -999 -999 -999 -999
2008-08-05 10:05 51°23.228 3°2.107 -999 -999 -999 -999 -999
2008-08-05 10:06 51°23.183 3°2.017 -999 -999 -999 -999 -999
2008-08-05 10:07 51°23.144 3°1.919 -999 -999 -999 -999 -999
2008-08-05 10:08 51°23.117 3°1.812 -999 -999 -999 -999 -999
2008-08-05 10:09 51°23.094 3°1.701 -999 -999 -999 -999 -999
2008-08-05 10:10 51°23.084 3°1.592 -999 -999 -999 -999 -999
2008-08-05 10:11 51°23.065 3°1.484 -999 -999 -999 -999 -999
2008-08-05 10:12 51°23.043 3°1.382 -999 -999 -999 -999 -999
2008-08-05 10:13 51°23.001 3°1.31 -999 -999 -999 -999 -999
2008-08-05 10:14 51°22.954 3°1.325 -999 -999 -999 -999 -999
2008-08-05 10:15 51°22.974 3°1.392 -999 -999 -999 -999 -999
2008-08-05 10:16 51°23.017 3°1.492 -999 -999 -999 -999 -999
2008-08-05 10:17 51°23.042 3°1.6 -999 -999 -999 -999 -999
2008-08-05 10:18 51°23.054 3°1.713 -999 -999 -999 -999 -999
2008-08-05 10:19 51°23.065 3°1.821 -999 -999 -999 -999 -999
2008-08-05 10:20 51°23.078 3°1.924 -999 -999 -999 -999 -999
2008-08-05 10:21 51°23.106 3°2.018 -999 -999 -999 -999 -999
2008-08-05 10:22 51°23.139 3°2.106 -999 -999 -999 -999 -999
2008-08-05 10:23 51°23.192 3°2.168 -999 -999 -999 -999 -999
2008-08-05 10:24 51°23.233 3°2.244 -999 -999 -999 -999 -999
2008-08-05 10:25 51°23.272 3°2.331 -999 -999 -999 -999 -999
2008-08-05 10:26 51°23.305 3°2.423 -999 -999 -999 -999 -999
2008-08-05 10:27 51°23.335 3°2.52 -999 -999 -999 -999 -999
2008-08-05 10:28 51°23.364 3°2.616 -999 -999 -999 -999 -999
2008-08-05 10:29 51°23.394 3°2.713 -999 -999 -999 -999 -999
2008-08-05 10:30 51°23.426 3°2.81 -999 -999 -999 -999 -999
2008-08-05 10:31 51°23.457 3°2.901 -999 -999 -999 -999 -999
2008-08-05 10:32 51°23.486 3°2.993 -999 -999 -999 -999 -999
2008-08-05 10:33 51°23.515 3°3.085 -999 -999 -999 -999 -999
2008-08-05 10:34 51°23.547 3°3.179 -999 -999 -999 -999 -999
2008-08-05 10:35 51°23.576 3°3.274 -999 -999 -999 -999 -999
2008-08-05 10:36 51°23.606 3°3.372 -999 -999 -999 -999 -999
2008-08-05 10:37 51°23.639 3°3.457 -999 -999 -999 -999 -999
2008-08-05 10:38 51°23.687 3°3.429 -999 -999 -999 -999 -999
2008-08-05 10:39 51°23.695 3°3.322 -999 -999 -999 -999 -999
2008-08-05 10:40 51°23.643 3°3.235 -999 -999 -999 -999 -999
2008-08-05 10:41 51°23.583 3°3.141 -999 -999 -999 -999 -999
2008-08-05 10:42 51°23.535 3°3.041 -999 -999 -999 -999 -999
2008-08-05 10:43 51°23.499 3°2.931 -999 -999 -999 -999 -999
2008-08-05 10:44 51°23.463 3°2.821 -999 -999 -999 -999 -999
2008-08-05 10:45 51°23.43 3°2.71 -999 -999 -999 -999 -999
2008-08-05 10:46 51°23.397 3°2.599 -999 -999 -999 -999 -999
2008-08-05 10:47 51°23.368 3°2.501 -999 -999 -999 -999 -999
2008-08-05 10:48 51°23.339 3°2.407 -999 -999 -999 -999 -999
2008-08-05 10:49 51°23.31 3°2.318 -999 -999 -999 -999 -999
2008-08-05 10:50 51°23.274 3°2.235 -999 -999 -999 -999 -999
2008-08-05 10:51 51°23.237 3°2.156 -999 -999 -999 -999 -999
2008-08-05 10:52 51°23.199 3°2.065 -999 -999 -999 -999 -999
2008-08-05 10:53 51°23.16 3°1.97 -999 -999 -999 -999 -999
2008-08-05 10:54 51°23.121 3°1.872 -999 -999 -999 -999 -999
2008-08-05 10:55 51°23.1 3°1.767 -999 -999 -999 -999 -999
2008-08-05 10:56 51°23.093 3°1.66 -999 -999 -999 -999 -999
2008-08-05 10:57 51°23.085 3°1.547 -999 -999 -999 -999 -999
2008-08-05 10:58 51°23.069 3°1.439 -999 -999 -999 -999 -999
2008-08-05 10:59 51°23.04 3°1.333 -999 -999 -999 -999 -999
2008-08-05 11:00 51°22.991 3°1.251 -999 -999 -999 -999 -999
2008-08-05 11:01 51°22.941 3°1.3 -999 -999 -999 -999 -999
2008-08-05 11:02 51°22.977 3°1.436 -999 -999 -999 -999 -999
2008-08-05 11:03 51°23.001 3°1.557 -999 -999 -999 -999 -999
2008-08-05 11:04 51°23.029 3°1.642 -999 -999 -999 -999 -999
2008-08-05 11:05 51°23.045 3°1.723 -999 -999 -999 -999 -999
2008-08-05 11:06 51°23.062 3°1.803 -999 -999 -999 -999 -999
2008-08-05 11:07 51°23.083 3°1.902 -999 -999 -999 -999 -999
2008-08-05 11:08 51°23.123 3°2.005 -999 -999 -999 -999 -999
2008-08-05 11:09 51°23.149 3°2.117 -999 -999 -999 -999 -999
2008-08-05 11:10 51°23.185 3°2.22 -999 -999 -999 -999 -999
2008-08-05 11:11 51°23.223 3°2.318 -999 -999 -999 -999 -999
2008-08-05 11:12 51°23.259 3°2.414 -999 -999 -999 -999 -999
2008-08-05 11:13 51°23.292 3°2.519 -999 -999 -999 -999 -999
2008-08-05 11:14 51°23.327 3°2.622 -999 -999 -999 -999 -999
2008-08-05 11:15 51°23.364 3°2.729 -999 -999 -999 -999 -999
2008-08-05 11:16 51°23.398 3°2.833 -999 -999 -999 -999 -999
2008-08-05 11:17 51°23.433 3°2.94 -999 -999 -999 -999 -999
2008-08-05 11:18 51°23.469 3°3.043 -999 -999 -999 -999 -999
2008-08-05 11:19 51°23.507 3°3.147 -999 -999 -999 -999 -999
2008-08-05 11:20 51°23.543 3°3.253 -999 -999 -999 -999 -999
2008-08-05 11:21 51°23.577 3°3.359 -999 -999 -999 -999 -999
2008-08-05 11:22 51°23.612 3°3.469 -999 -999 -999 -999 -999
2008-08-05 11:23 51°23.659 3°3.527 -999 -999 -999 -999 -999
2008-08-05 11:24 51°23.698 3°3.451 -999 -999 -999 -999 -999
2008-08-05 11:25 51°23.661 3°3.335 -999 -999 -999 -999 -999
2008-08-05 11:26 51°23.601 3°3.237 -999 -999 -999 -999 -999
2008-08-05 11:27 51°23.558 3°3.133 -999 -999 -999 -999 -999
2008-08-05 11:28 51°23.524 3°3.037 -999 -999 -999 -999 -999
2008-08-05 11:29 51°23.488 3°2.94 -999 -999 -999 -999 -999
2008-08-05 11:30 51°23.456 3°2.847 -999 -999 -999 -999 -999
2008-08-05 11:31 51°23.425 3°2.747 -999 -999 -999 -999 -999
2008-08-05 11:32 51°23.395 3°2.65 -999 -999 -999 -999 -999
2008-08-05 11:33 51°23.366 3°2.548 -999 -999 -999 -999 -999
2008-08-05 11:34 51°23.363 3°2.463 -999 -999 -999 -999 -999
2008-08-05 11:35 51°23.372 3°2.415 -999 -999 -999 -999 -999
2008-08-05 11:36 51°23.378 3°2.348 -999 -999 -999 -999 -999
2008-08-05 11:37 51°23.344 3°2.268 -999 -999 -999 -999 -999
2008-08-05 11:38 51°23.29 3°2.184 -999 -999 -999 -999 -999
2008-08-05 11:39 51°23.235 3°2.102 -999 -999 -999 -999 -999
2008-08-05 11:40 51°23.179 3°2.023 -999 -999 -999 -999 -999
2008-08-05 11:41 51°23.131 3°1.94 -999 -999 -999 -999 -999
2008-08-05 11:42 51°23.104 3°1.849 -999 -999 -999 -999 -999
2008-08-05 11:43 51°23.096 3°1.75 -999 -999 -999 -999 -999
2008-08-05 11:44 51°23.089 3°1.647 -999 -999 -999 -999 -999
2008-08-05 11:45 51°23.079 3°1.539 -999 -999 -999 -999 -999
2008-08-05 11:46 51°23.055 3°1.438 -999 -999 -999 -999 -999
2008-08-05 11:47 51°23.025 3°1.335 -999 -999 -999 -999 -999
2008-08-05 11:48 51°22.976 3°1.267 -999 -999 -999 -999 -999
2008-08-05 11:49 51°22.926 3°1.33 -999 -999 -999 -999 -999
2008-08-05 11:50 51°22.957 3°1.44 -999 -999 -999 -999 -999
2008-08-05 11:51 51°23.006 3°1.583 -999 -999 -999 -999 -999
2008-08-05 11:52 51°23.037 3°1.69 -999 -999 -999 -999 -999
2008-08-05 11:53 51°23.051 3°1.782 -999 -999 -999 -999 -999
2008-08-05 11:54 51°23.069 3°1.892 -999 -999 -999 -999 -999
2008-08-05 11:55 51°23.091 3°2.004 -999 -999 -999 -999 -999
2008-08-05 11:56 51°23.121 3°2.113 -999 -999 -999 -999 -999
2008-08-05 11:57 51°23.159 3°2.204 -999 -999 -999 -999 -999
2008-08-05 11:58 51°23.193 3°2.307 -999 -999 -999 -999 -999
2008-08-05 11:59 51°23.233 3°2.402 -999 -999 -999 -999 -999
2008-08-05 12:00 51°23.276 3°2.496 -999 -999 -999 -999 -999
2008-08-05 12:01 51°23.317 3°2.591 -999 -999 -999 -999 -999
2008-08-05 12:02 51°23.354 3°2.694 -999 -999 -999 -999 -999
2008-08-05 12:03 51°23.389 3°2.8 -999 -999 -999 -999 -999
2008-08-05 12:04 51°23.423 3°2.904 -999 -999 -999 -999 -999
2008-08-05 12:05 51°23.459 3°3.01 -999 -999 -999 -999 -999
2008-08-05 12:06 51°23.495 3°3.118 -999 -999 -999 -999 -999
2008-08-05 12:07 51°23.53 3°3.228 -999 -999 -999 -999 -999
2008-08-05 12:08 51°23.567 3°3.338 -999 -999 -999 -999 -999
2008-08-05 12:09 51°23.612 3°3.438 -999 -999 -999 -999 -999
2008-08-05 12:10 51°23.66 3°3.529 -999 -999 -999 -999 -999
2008-08-05 12:11 51°23.714 3°3.518 -999 -999 -999 -999 -999
2008-08-05 12:12 51°23.706 3°3.411 -999 -999 -999 -999 -999
2008-08-05 12:13 51°23.654 3°3.329 -999 -999 -999 -999 -999
2008-08-05 12:14 51°23.611 3°3.246 -999 -999 -999 -999 -999
2008-08-05 12:15 51°23.566 3°3.161 -999 -999 -999 -999 -999
2008-08-05 12:16 51°23.528 3°3.07 -999 -999 -999 -999 -999
2008-08-05 12:17 51°23.494 3°2.975 -999 -999 -999 -999 -999
2008-08-05 12:18 51°23.46 3°2.882 -999 -999 -999 -999 -999
2008-08-05 12:19 51°23.424 3°2.79 -999 -999 -999 -999 -999
2008-08-05 12:20 51°23.39 3°2.695 -999 -999 -999 -999 -999
2008-08-05 12:21 51°23.356 3°2.601 -999 -999 -999 -999 -999
2008-08-05 12:22 51°23.32 3°2.508 -999 -999 -999 -999 -999
2008-08-05 12:23 51°23.292 3°2.41 -999 -999 -999 -999 -999
2008-08-05 12:24 51°23.265 3°2.311 -999 -999 -999 -999 -999
2008-08-05 12:25 51°23.232 3°2.214 -999 -999 -999 -999 -999
2008-08-05 12:26 51°23.199 3°2.118 -999 -999 -999 -999 -999
2008-08-05 12:27 51°23.166 3°2.022 -999 -999 -999 -999 -999
2008-08-05 12:28 51°23.135 3°1.925 -999 -999 -999 -999 -999
2008-08-05 12:29 51°23.117 3°1.823 -999 -999 -999 -999 -999
2008-08-05 12:30 51°23.099 3°1.72 -999 -999 -999 -999 -999
2008-08-05 12:31 51°23.078 3°1.616 -999 -999 -999 -999 -999
2008-08-05 12:32 51°23.058 3°1.512 -999 -999 -999 -999 -999
2008-08-05 12:33 51°23.037 3°1.408 -999 -999 -999 -999 -999
2008-08-05 12:34 51°22.995 3°1.326 -999 -999 -999 -999 -999
2008-08-05 12:35 51°22.937 3°1.362 -999 -999 -999 -999 -999
2008-08-05 12:36 51°22.955 3°1.461 -999 -999 -999 -999 -999
2008-08-05 12:37 51°22.997 3°1.57 -999 -999 -999 -999 -999
2008-08-05 12:38 51°23.025 3°1.672 -999 -999 -999 -999 -999
2008-08-05 12:39 51°23.048 3°1.769 -999 -999 -999 -999 -999
2008-08-05 12:40 51°23.064 3°1.867 -999 -999 -999 -999 -999
2008-08-05 12:41 51°23.086 3°1.959 -999 -999 -999 -999 -999
2008-08-05 12:42 51°23.116 3°2.045 -999 -999 -999 -999 -999
2008-08-05 12:43 51°23.148 3°2.135 -999 -999 -999 -999 -999
2008-08-05 12:44 51°23.178 3°2.227 -999 -999 -999 -999 -999
2008-08-05 12:45 51°23.208 3°2.321 -999 -999 -999 -999 -999
2008-08-05 12:46 51°23.239 3°2.415 -999 -999 -999 -999 -999
2008-08-05 12:47 51°23.272 3°2.507 -999 -999 -999 -999 -999
2008-08-05 12:48 51°23.307 3°2.597 -999 -999 -999 -999 -999
2008-08-05 12:49 51°23.344 3°2.687 -999 -999 -999 -999 -999
2008-08-05 12:50 51°23.378 3°2.779 -999 -999 -999 -999 -999
2008-08-05 12:51 51°23.412 3°2.87 -999 -999 -999 -999 -999
2008-08-05 12:52 51°23.446 3°2.961 -999 -999 -999 -999 -999
2008-08-05 12:53 51°23.48 3°3.051 -999 -999 -999 -999 -999
2008-08-05 12:54 51°23.516 3°3.14 -999 -999 -999 -999 -999
2008-08-05 12:55 51°23.55 3°3.229 -999 -999 -999 -999 -999
2008-08-05 12:56 51°23.584 3°3.318 -999 -999 -999 -999 -999
2008-08-05 12:57 51°23.618 3°3.408 -999 -999 -999 -999 -999
2008-08-05 12:58 51°23.651 3°3.498 -999 -999 -999 -999 -999
2008-08-05 12:59 51°23.688 3°3.564 -999 -999 -999 -999 -999
2008-08-05 13:00 51°23.724 3°3.518 -999 -999 -999 -999 -999
2008-08-05 13:01 51°23.685 3°3.44 -999 -999 -999 -999 -999
2008-08-05 13:02 51°23.63 3°3.368 -999 -999 -999 -999 -999
2008-08-05 13:03 51°23.592 3°3.272 -999 -999 -999 -999 -999
2008-08-05 13:04 51°23.57 3°3.163 -999 -999 -999 -999 -999
2008-08-05 13:05 51°23.544 3°3.053 -999 -999 -999 -999 -999
2008-08-05 13:06 51°23.511 3°2.95 -999 -999 -999 -999 -999
2008-08-05 13:07 51°23.478 3°2.853 -999 -999 -999 -999 -999
2008-08-05 13:08 51°23.446 3°2.759 -999 -999 -999 -999 -999
2008-08-05 13:09 51°23.416 3°2.664 -999 -999 -999 -999 -999
2008-08-05 13:10 51°23.385 3°2.57 -999 -999 -999 -999 -999
2008-08-05 13:11 51°23.349 3°2.481 -999 -999 -999 -999 -999
2008-08-05 13:12 51°23.311 3°2.395 -999 -999 -999 -999 -999
2008-08-05 13:13 51°23.274 3°2.312 -999 -999 -999 -999 -999
2008-08-05 13:14 51°23.241 3°2.228 -999 -999 -999 -999 -999
2008-08-05 13:15 51°23.207 3°2.146 -999 -999 -999 -999 -999
2008-08-05 13:16 51°23.171 3°2.066 -999 -999 -999 -999 -999
2008-08-05 13:17 51°23.136 3°1.986 -999 -999 -999 -999 -999
2008-08-05 13:18 51°23.117 3°1.898 -999 -999 -999 -999 -999
2008-08-05 13:19 51°23.104 3°1.808 -999 -999 -999 -999 -999
2008-08-05 13:20 51°23.091 3°1.718 -999 -999 -999 -999 -999
2008-08-05 13:21 51°23.083 3°1.629 -999 -999 -999 -999 -999
2008-08-05 13:22 51°23.058 3°1.553 -999 -999 -999 -999 -999
2008-08-05 13:23 51°23.044 3°1.472 -999 -999 -999 -999 -999
2008-08-05 13:24 51°23.015 3°1.417 -999 -999 -999 -999 -999
2008-08-05 13:25 51°22.97 3°1.444 -999 -999 -999 -999 -999
2008-08-05 13:26 51°22.961 3°1.553 -999 -999 -999 -999 -999
2008-08-05 13:27 51°23.003 3°1.633 -999 -999 -999 -999 -999
2008-08-05 13:28 51°23.052 3°1.714 -999 -999 -999 -999 -999
2008-08-05 13:29 51°23.081 3°1.832 -999 -999 -999 -999 -999
2008-08-05 13:30 51°23.094 3°1.964 -999 -999 -999 -999 -999
2008-08-05 13:31 51°23.111 3°2.079 -999 -999 -999 -999 -999
2008-08-05 13:32 51°23.137 3°2.175 -999 -999 -999 -999 -999
2008-08-05 13:33 51°23.169 3°2.261 -999 -999 -999 -999 -999
2008-08-05 13:34 51°23.204 3°2.352 -999 -999 -999 -999 -999
2008-08-05 13:35 51°23.233 3°2.44 -999 -999 -999 -999 -999
2008-08-05 13:36 51°23.249 3°2.496 -999 -999 -999 -999 -999
2008-08-05 13:37 51°23.263 3°2.542 -999 -999 -999 -999 -999
2008-08-05 13:38 51°23.273 3°2.585 -999 -999 -999 -999 -999
2008-08-05 13:39 51°23.28 3°2.626 -999 -999 -999 -999 -999
2008-08-05 13:40 51°23.284 3°2.668 -999 -999 -999 -999 -999
2008-08-05 13:41 51°23.286 3°2.71 -999 -999 -999 -999 -999
2008-08-05 13:42 51°23.288 3°2.756 -999 -999 -999 -999 -999
2008-08-05 13:43 51°23.298 3°2.736 -999 -999 -999 -999 -999
2008-08-05 13:44 51°23.237 3°2.564 -999 -999 -999 -999 -999
2008-08-05 13:45 51°23.174 3°2.306 -999 -999 -999 -999 -999
2008-08-05 13:46 51°23.164 3°2.149 -999 -999 -999 -999 -999
2008-08-05 13:47 51°23.165 3°1.993 -999 -999 -999 -999 -999
2008-08-05 13:48 51°23.146 3°1.89 -999 -999 -999 -999 -999
2008-08-05 13:49 51°23.123 3°1.814 -999 -999 -999 -999 -999
2008-08-05 13:50 51°23.114 3°1.751 -999 -999 -999 -999 -999
2008-08-05 13:51 51°23.149 3°1.735 -999 -999 -999 -999 -999
2008-08-05 13:52 51°23.206 3°1.806 -999 -999 -999 -999 -999
2008-08-05 13:53 51°23.285 3°2.066 -999 -999 -999 -999 -999
2008-08-05 13:54 51°23.361 3°2.412 -999 -999 -999 -999 -999
2008-08-05 13:55 51°23.433 3°2.767 -999 -999 -999 -999 -999
2008-08-05 13:56 51°23.476 3°3.026 -999 -999 -999 -999 -999
2008-08-05 13:57 51°23.506 3°3.165 -999 -999 -999 -999 -999
2008-08-05 13:58 51°23.513 3°3.221 -999 -999 -999 -999 -999
2008-08-05 13:59 51°23.52 3°3.283 -999 -999 -999 -999 -999
2008-08-05 14:00 51°23.53 3°3.343 -999 -999 -999 -999 -999
2008-08-05 14:01 51°23.542 3°3.403 -999 -999 -999 -999 -999
2008-08-05 14:02 51°23.553 3°3.465 -999 -999 -999 -999 -999
2008-08-05 14:03 51°23.564 3°3.536 -999 -999 -999 -999 -999
2008-08-05 14:04 51°23.575 3°3.604 -999 -999 -999 -999 -999
2008-08-05 14:05 51°23.586 3°3.672 -999 -999 -999 -999 -999
2008-08-05 14:06 51°23.597 3°3.739 -999 -999 -999 -999 -999
2008-08-05 14:07 51°23.61 3°3.804 -999 -999 -999 -999 -999
2008-08-05 14:08 51°23.627 3°3.872 -999 -999 -999 -999 -999
2008-08-05 14:09 51°23.643 3°4.022 -999 -999 -999 -999 -999
2008-08-05 14:10 51°23.567 3°4.071 -999 -999 -999 -999 -999
2008-08-05 14:11 51°23.523 3°3.896 -999 -999 -999 -999 -999
2008-08-05 14:12 51°23.448 3°3.665 -999 -999 -999 -999 -999
2008-08-05 14:13 51°23.357 3°3.438 -999 -999 -999 -999 -999
2008-08-05 14:14 51°23.276 3°3.205 -999 -999 -999 -999 -999
2008-08-05 14:15 51°23.204 3°2.967 -999 -999 -999 -999 -999
2008-08-05 14:16 51°23.125 3°2.734 -999 -999 -999 -999 -999
2008-08-05 14:17 51°23.047 3°2.501 -999 -999 -999 -999 -999
2008-08-05 14:18 51°22.973 3°2.262 -999 -999 -999 -999 -999
2008-08-05 14:19 51°22.908 3°2.027 -999 -999 -999 -999 -999
2008-08-05 14:20 51°22.896 3°1.89 -999 -999 -999 -999 -999
2008-08-05 14:21 51°22.916 3°1.843 -999 -999 -999 -999 -999
2008-08-05 14:22 51°22.921 3°1.801 -999 -999 -999 -999 -999
2008-08-05 14:23 51°22.935 3°1.755 -999 -999 -999 -999 -999
2008-08-05 14:24 51°22.955 3°1.698 -999 -999 -999 -999 -999
2008-08-05 14:25 51°22.981 3°1.676 -999 -999 -999 -999 -999
2008-08-05 14:26 51°23.012 3°1.703 -999 -999 -999 -999 -999
2008-08-05 14:27 51°23.04 3°1.745 -999 -999 -999 -999 -999
2008-08-05 14:28 51°23.066 3°1.795 -999 -999 -999 -999 -999
2008-08-05 14:29 51°23.092 3°1.847 -999 -999 -999 -999 -999
2008-08-05 14:30 51°23.115 3°1.903 -999 -999 -999 -999 -999
2008-08-05 14:31 51°23.138 3°1.961 -999 -999 -999 -999 -999
2008-08-05 14:32 51°23.172 3°1.984 -999 -999 -999 -999 -999
2008-08-05 14:33 51°23.157 3°1.953 -999 -999 -999 -999 -999
2008-08-05 14:34 51°23.092 3°1.854 -999 -999 -999 -999 -999
2008-08-05 14:35 51°23.035 3°1.758 -999 -999 -999 -999 -999
2008-08-05 14:36 51°23.013 3°1.724 -999 -999 -999 -999 -999
2008-08-05 14:37 51°23.016 3°1.721 -999 -999 -999 -999 -999
2008-08-05 14:38 51°23.029 3°1.738 -999 -999 -999 -999 -999
2008-08-05 14:39 51°23.044 3°1.764 -999 -999 -999 -999 -999
2008-08-05 14:40 51°23.059 3°1.793 -999 -999 -999 -999 -999
2008-08-05 14:41 51°23.053 3°1.816 -999 -999 -999 -999 -999
2008-08-05 14:42 51°23.021 3°1.8 -999 -999 -999 -999 -999
2008-08-05 14:43 51°23.02 3°1.794 -999 -999 -999 -999 -999
2008-08-05 14:44 51°23.031 3°1.799 -999 -999 -999 -999 -999
2008-08-05 14:45 51°23.049 3°1.806 -999 -999 -999 -999 -999
2008-08-05 14:46 51°23.112 3°1.83 -999 -999 -999 -999 -999
2008-08-05 14:47 51°23.156 3°1.986 -999 -999 -999 -999 -999
2008-08-05 14:48 51°23.137 3°2.113 -999 -999 -999 -999 -999
2008-08-05 14:49 51°23.1 3°2.146 -999 -999 -999 -999 -999
2008-08-05 14:50 51°23.111 3°2.106 -999 -999 -999 -999 -999
2008-08-05 14:51 51°23.109 3°2.082 -999 -999 -999 -999 -999
2008-08-05 14:52 51°23.11 3°2.081 -999 -999 -999 -999 -999
2008-08-05 14:53 51°23.118 3°2.088 -999 -999 -999 -999 -999
2008-08-05 14:54 51°23.153 3°2.082 -999 -999 -999 -999 -999
2008-08-05 14:55 51°23.228 3°2.2 -999 -999 -999 -999 -999
2008-08-05 14:56 51°23.296 3°2.489 -999 -999 -999 -999 -999
2008-08-05 14:57 51°23.379 3°2.817 -999 -999 -999 -999 -999
2008-08-05 14:58 51°23.478 3°3.137 -999 -999 -999 -999 -999
2008-08-05 14:59 51°23.572 3°3.395 -999 -999 -999 -999 -999
2008-08-05 15:00 51°23.645 3°3.498 -999 -999 -999 -999 -999
2008-08-05 15:01 51°23.7 3°3.508 -999 -999 -999 -999 -999
2008-08-05 15:02 51°23.685 3°3.464 -999 -999 -999 -999 -999
2008-08-05 15:03 51°23.646 3°3.38 -999 -999 -999 -999 -999
2008-08-05 15:04 51°23.604 3°3.296 -999 -999 -999 -999 -999
2008-08-05 15:05 51°23.587 3°3.267 -999 -999 -999 -999 -999
2008-08-05 15:06 51°23.583 3°3.263 -999 -999 -999 -999 -999
2008-08-05 15:07 51°23.572 3°3.258 -999 -999 -999 -999 -999
2008-08-05 15:08 51°23.544 3°3.226 -999 -999 -999 -999 -999
2008-08-05 15:09 51°23.506 3°3.143 -999 -999 -999 -999 -999
2008-08-05 15:10 51°23.47 3°3.033 -999 -999 -999 -999 -999
2008-08-05 15:11 51°23.437 3°2.928 -999 -999 -999 -999 -999
2008-08-05 15:12 51°23.429 3°2.883 -999 -999 -999 -999 -999
2008-08-05 15:13 51°23.433 3°2.875 -999 -999 -999 -999 -999
2008-08-05 15:14 51°23.434 3°2.879 -999 -999 -999 -999 -999
2008-08-05 15:15 51°23.424 3°2.872 -999 -999 -999 -999 -999
2008-08-05 15:16 51°23.4 3°2.832 -999 -999 -999 -999 -999
2008-08-05 15:17 51°23.385 3°2.816 -999 -999 -999 -999 -999
2008-08-05 15:18 51°23.376 3°2.825 -999 -999 -999 -999 -999
2008-08-05 15:19 51°23.366 3°2.812 -999 -999 -999 -999 -999
2008-08-05 15:20 51°23.359 3°2.774 -999 -999 -999 -999 -999
2008-08-05 15:21 51°23.354 3°2.734 -999 -999 -999 -999 -999
2008-08-05 15:22 51°23.34 3°2.678 -999 -999 -999 -999 -999
2008-08-05 15:23 51°23.338 3°2.644 -999 -999 -999 -999 -999
2008-08-05 15:24 51°23.346 3°2.633 -999 -999 -999 -999 -999
2008-08-05 15:25 51°23.345 3°2.613 -999 -999 -999 -999 -999
2008-08-05 15:26 51°23.327 3°2.56 -999 -999 -999 -999 -999
2008-08-05 15:27 51°23.295 3°2.476 -999 -999 -999 -999 -999
2008-08-05 15:28 51°23.268 3°2.411 -999 -999 -999 -999 -999
2008-08-05 15:29 51°23.252 3°2.4 -999 -999 -999 -999 -999
2008-08-05 15:30 51°23.239 3°2.409 -999 -999 -999 -999 -999
2008-08-05 15:31 51°23.218 3°2.384 -999 -999 -999 -999 -999
2008-08-05 15:32 51°23.207 3°2.321 -999 -999 -999 -999 -999
2008-08-05 15:33 51°23.21 3°2.274 -999 -999 -999 -999 -999
2008-08-05 15:34 51°23.223 3°2.259 -999 -999 -999 -999 -999
2008-08-05 15:35 51°23.236 3°2.259 -999 -999 -999 -999 -999
2008-08-05 15:36 51°23.243 3°2.262 -999 -999 -999 -999 -999
2008-08-05 15:37 51°23.234 3°2.243 -999 -999 -999 -999 -999
2008-08-05 15:38 51°23.196 3°2.203 -999 -999 -999 -999 -999
2008-08-05 15:39 51°23.174 3°2.185 -999 -999 -999 -999 -999
2008-08-05 15:40 51°23.167 3°2.183 -999 -999 -999 -999 -999
2008-08-05 15:41 51°23.165 3°2.189 -999 -999 -999 -999 -999
2008-08-05 15:42 51°23.162 3°2.201 -999 -999 -999 -999 -999
2008-08-05 15:43 51°23.161 3°2.223 -999 -999 -999 -999 -999
2008-08-05 15:44 51°23.165 3°2.253 -999 -999 -999 -999 -999
2008-08-05 15:45 51°23.172 3°2.289 -999 -999 -999 -999 -999
2008-08-05 15:46 51°23.157 3°2.273 -999 -999 -999 -999 -999
2008-08-05 15:47 51°23.07 3°2.153 -999 -999 -999 -999 -999
2008-08-05 15:48 51°22.939 3°1.984 -999 -999 -999 -999 -999
2008-08-05 15:49 51°22.806 3°1.802 -999 -999 -999 -999 -999
2008-08-05 15:50 51°22.673 3°1.618 -999 -999 -999 -999 -999
2008-08-05 15:51 51°22.542 3°1.433 -999 -999 -999 -999 -999
2008-08-05 15:52 51°22.414 3°1.237 -999 -999 -999 -999 -999
2008-08-05 15:53 51°22.285 3°1.043 -999 -999 -999 -999 -999
2008-08-05 15:54 51°22.16 3°0.841 -999 -999 -999 -999 -999
2008-08-05 15:55 51°22.025 3°0.648 -999 -999 -999 -999 -999
2008-08-05 15:56 51°21.892 3°0.455 -999 -999 -999 -999 -999
2008-08-05 15:57 51°21.764 3°0.254 -999 -999 -999 -999 -999
2008-08-05 15:58 51°21.636 3°0.055 -999 -999 -999 -999 -999
2008-08-05 15:59 51°21.518 2°59.847 -999 -999 -999 -999 -999
2008-08-05 16:00 51°21.4 2°59.636 -999 -999 -999 -999 -999
2008-08-05 16:01 51°21.286 2°59.42 -999 -999 -999 -999 -999
2008-08-05 16:02 51°21.171 2°59.203 -999 -999 -999 -999 -999
2008-08-05 16:03 51°21.058 2°58.985 -999 -999 -999 -999 -999
2008-08-05 16:04 51°20.948 2°58.762 -999 -999 -999 -999 -999
2008-08-05 16:05 51°20.833 2°58.542 -999 -999 -999 -999 -999
2008-08-05 16:06 51°20.719 2°58.322 -999 -999 -999 -999 -999
2008-08-05 16:07 51°20.606 2°58.1 -999 -999 -999 -999 -999
2008-08-05 16:08 51°20.497 2°57.866 -999 -999 -999 -999 -999
2008-08-05 16:09 51°20.392 2°57.627 -999 -999 -999 -999 -999
2008-08-05 16:10 51°20.281 2°57.398 -999 -999 -999 -999 -999
2008-08-05 16:11 51°20.166 2°57.179 -999 -999 -999 -999 -999
2008-08-05 16:12 51°20.054 2°56.95 -999 -999 -999 -999 -999
2008-08-05 16:13 51°19.944 2°56.72 -999 -999 -999 -999 -999
2008-08-05 16:14 51°19.822 2°56.501 -999 -999 -999 -999 -999
2008-08-05 16:15 51°19.698 2°56.284 -999 -999 -999 -999 -999
2008-08-05 16:16 51°19.568 2°56.078 -999 -999 -999 -999 -999
2008-08-05 16:17 51°19.44 2°55.868 -999 -999 -999 -999 -999
2008-08-05 16:18 51°19.313 2°55.657 -999 -999 -999 -999 -999
2008-08-05 16:19 51°19.186 2°55.445 -999 -999 -999 -999 -999
2008-08-05 16:20 51°19.062 2°55.228 -999 -999 -999 -999 -999
2008-08-05 16:21 51°18.938 2°55.012 -999 -999 -999 -999 -999
2008-08-05 16:22 51°18.813 2°54.796 -999 -999 -999 -999 -999
2008-08-05 16:23 51°18.688 2°54.582 -999 -999 -999 -999 -999
2008-08-05 16:24 51°18.563 2°54.365 -999 -999 -999 -999 -999
2008-08-05 16:25 51°18.44 2°54.145 -999 -999 -999 -999 -999
2008-08-05 16:26 51°18.3 2°53.954 -999 -999 -999 -999 -999
2008-08-05 16:27 51°18.15 2°53.785 -999 -999 -999 -999 -999
2008-08-05 16:28 51°17.986 2°53.649 -999 -999 -999 -999 -999
2008-08-05 16:29 51°17.821 2°53.516 -999 -999 -999 -999 -999
2008-08-05 16:30 51°17.652 2°53.394 -999 -999 -999 -999 -999
2008-08-05 16:31 51°17.472 2°53.321 -999 -999 -999 -999 -999
2008-08-05 16:32 51°17.29 2°53.26 -999 -999 -999 -999 -999
2008-08-05 16:33 51°17.103 2°53.247 -999 -999 -999 -999 -999
2008-08-05 16:34 51°16.916 2°53.28 -999 -999 -999 -999 -999
2008-08-05 16:35 51°16.728 2°53.357 -999 -999 -999 -999 -999
2008-08-05 16:36 51°16.54 2°53.445 -999 -999 -999 -999 -999
2008-08-05 16:37 51°16.352 2°53.533 -999 -999 -999 -999 -999
2008-08-05 16:38 51°16.164 2°53.615 -999 -999 -999 -999 -999
2008-08-05 16:39 51°15.974 2°53.687 -999 -999 -999 -999 -999
2008-08-05 16:40 51°15.784 2°53.767 -999 -999 -999 -999 -999
2008-08-05 16:41 51°15.596 2°53.873 -999 -999 -999 -999 -999
2008-08-05 16:42 51°15.412 2°53.987 -999 -999 -999 -999 -999
2008-08-05 16:43 51°15.236 2°54.12 -999 -999 -999 -999 -999
2008-08-05 16:44 51°15.061 2°54.257 -999 -999 -999 -999 -999
2008-08-05 16:45 51°14.896 2°54.424 -999 -999 -999 -999 -999
2008-08-05 16:46 51°14.738 2°54.615 -999 -999 -999 -999 -999
2008-08-05 16:47 51°14.578 2°54.803 -999 -999 -999 -999 -999
2008-08-05 16:48 51°14.428 2°55.013 -999 -999 -999 -999 -999
2008-08-05 16:49 51°14.302 2°55.213 -999 -999 -999 -999 -999
2008-08-05 16:50 51°14.166 2°55.373 -999 -999 -999 -999 -999
2008-08-05 16:51 51°14.006 2°55.494 -999 -999 -999 -999 -999
2008-08-05 16:52 51°13.854 2°55.603 -999 -999 -999 -999 -999
2008-08-05 16:53 51°13.764 2°55.703 -999 -999 -999 -999 -999